period_start,C,m1,H,J0,J1,J2,J3,J4,J5,JA,JB,JC,JD,JJ,JK,JN,#
2017-09-04 00:02:15,0.01,0.06,0.00,25.68,29.25,31.51,13.77,44.33,1015.15,2025.02,3517.00,3058.82,3509.12,600.33,590.27,6.60,0000 0000 0000 0000 000000
2017-09-04 00:07:17,0.02,0.06,0.00,25.68,29.25,31.53,13.58,44.09,1015.15,2025.03,3516.73,3058.30,3509.01,599.85,589.76,6.65,0000 0000 0000 0000 000000
2017-09-04 00:12:18,0.01,0.07,0.00,25.71,29.25,31.53,13.73,44.31,1015.15,2025.01,3516.06,3058.01,3508.96,600.08,589.88,6.70,0000 0000 0000 0000 000000
2017-09-04 00:17:19,0.01,0.07,0.00,25.70,29.27,31.54,13.69,44.16,1015.15,2025.00,3516.00,3058.00,3508.58,599.62,589.39,6.75,0000 0000 0000 0000 000000
2017-09-04 00:22:20,0.00,0.07,0.00,25.72,29.27,31.53,13.71,44.19,1015.15,2025.00,3515.95,3057.96,3508.03,600.30,590.01,6.80,0000 0000 0000 0000 000000
2017-09-04 00:27:21,0.01,0.07,0.00,25.73,29.27,31.54,13.81,44.12,1015.15,2025.00,3515.28,3057.84,3508.00,600.04,589.71,6.85,0000 0000 0000 0000 000000
2017-09-04 00:32:22,0.01,0.07,0.00,25.70,29.27,31.53,13.69,44.08,1015.15,2025.00,3515.01,3057.30,3507.96,600.27,590.03,6.90,0000 0000 0000 0000 000000
2017-09-04 00:37:23,0.01,0.07,0.00,25.72,29.27,31.56,13.72,44.16,1015.15,2025.01,3514.97,3057.03,3507.51,600.12,589.91,6.95,0000 0000 0000 0000 000000
2017-09-04 00:42:24,0.01,0.07,0.00,25.72,29.27,31.55,13.73,44.11,1015.15,2025.02,3514.34,3057.00,3507.04,599.98,589.69,7.00,0000 0000 0000 0000 000000
2017-09-04 00:47:26,0.00,0.07,0.00,25.71,29.28,31.55,13.77,44.20,1015.15,2025.01,3514.01,3056.99,3507.00,600.44,590.12,7.05,0000 0000 0000 0000 000000
2017-09-04 00:52:27,0.00,0.07,0.00,25.73,29.29,31.55,13.72,44.20,1015.15,2025.00,3513.99,3056.94,3506.93,600.10,589.84,7.10,0000 0000 0000 0000 000000
2017-09-04 00:57:28,0.04,0.07,0.00,25.74,29.30,31.55,13.77,44.24,1015.15,2025.00,3513.57,3056.34,3506.32,600.03,589.67,7.15,0000 0000 0000 0000 000000
2017-09-04 01:02:29,0.00,0.07,0.00,25.75,29.30,31.56,13.67,44.08,1015.15,2025.00,3513.03,3056.02,3506.01,599.69,589.45,7.20,0000 0000 0000 0000 000000
2017-09-04 01:07:30,0.00,0.07,0.00,25.76,29.30,31.57,13.75,44.00,1015.15,2025.00,3513.00,3056.00,3506.00,599.86,589.48,7.25,0000 0000 0000 0000 000000
2017-09-04 01:12:32,0.00,0.07,0.00,25.78,29.30,31.57,13.69,44.02,1015.15,2025.00,3512.89,3055.99,3505.70,599.99,589.62,7.30,0000 0000 0000 0000 000000
2017-09-04 01:17:33,0.02,0.07,0.00,25.81,29.31,31.56,13.68,44.04,1015.15,2025.00,3512.22,3055.91,3505.09,599.99,589.54,7.35,0000 0000 0000 0000 000000
2017-09-04 01:22:34,0.01,0.07,0.00,25.81,29.32,31.57,13.71,44.26,1015.15,2024.99,3512.00,3055.35,3505.00,600.02,589.56,7.40,0000 0000 0000 0000 000000
2017-09-04 01:27:35,0.00,0.07,0.00,25.82,29.32,31.59,13.65,44.05,1015.14,2024.99,3511.99,3055.06,3504.91,599.90,589.43,7.45,0000 0000 0000 0000 000000
2017-09-04 01:32:37,0.02,0.08,0.00,25.84,29.32,31.60,13.76,44.14,1015.14,2024.99,3511.41,3055.00,3504.29,600.07,589.62,7.50,0000 0000 0000 0000 000000
2017-09-04 01:37:38,0.00,0.08,0.00,25.85,29.34,31.60,13.70,44.26,1015.14,2024.99,3511.06,3054.99,3504.02,599.94,589.49,7.55,0000 0000 0000 0000 000000
2017-09-04 01:42:39,0.00,0.08,0.00,25.87,29.35,31.61,13.78,44.27,1015.14,2024.99,3510.99,3054.82,3503.99,600.19,589.60,7.60,0000 0000 0000 0000 000000
2017-09-04 01:47:41,0.01,0.08,0.00,25.89,29.35,31.62,13.70,44.10,1015.15,2024.99,3510.68,3054.47,3503.94,600.03,589.27,7.65,0000 0000 0000 0000 000000
2017-09-04 01:52:42,0.02,0.08,0.00,25.90,29.36,31.62,13.73,44.27,1015.15,2024.99,3510.06,3054.03,3503.26,600.08,589.44,7.70,0000 0000 0000 0000 000000
2017-09-04 01:57:43,0.00,0.08,0.00,25.91,29.37,31.64,13.73,44.11,1015.13,2024.99,3509.96,3053.99,3503.00,600.21,589.54,7.75,0000 0000 0000 0000 000000
2017-09-04 02:02:45,0.02,0.08,0.00,25.93,29.37,31.65,13.73,44.17,1015.13,2024.97,3509.37,3053.88,3502.72,599.92,589.32,7.80,0000 0000 0000 0000 000000
2017-09-04 02:07:46,0.02,0.08,0.00,25.95,29.39,31.66,13.72,44.24,1015.12,2024.94,3509.00,3053.25,3502.04,600.16,589.42,7.85,0000 0000 0000 0000 000000
2017-09-04 02:12:47,0.00,0.08,0.00,25.95,29.40,31.66,13.63,44.07,1015.11,2024.85,3508.84,3053.01,3501.99,599.68,588.96,7.90,0000 0000 0000 0000 000000
2017-09-04 02:17:48,0.02,0.08,0.00,25.96,29.41,31.68,13.69,44.05,1015.10,2024.83,3508.16,3053.00,3501.61,599.54,588.77,7.95,0000 0000 0000 0000 000000
2017-09-04 02:22:50,-0.01,0.08,0.00,25.98,29.42,31.68,13.68,44.12,1015.07,2024.73,3508.00,3052.96,3501.07,599.78,588.96,8.00,0000 0000 0000 0000 000000
2017-09-04 02:27:51,0.01,0.08,0.00,26.00,29.43,31.70,13.72,44.15,1015.02,2024.62,3507.92,3052.64,3501.00,599.95,589.00,8.05,0000 0000 0000 0000 000000
2017-09-04 02:32:52,0.03,0.08,0.00,26.01,29.45,31.71,13.73,44.10,1014.93,2024.51,3507.25,3052.06,3500.85,600.19,589.24,8.10,0000 0000 0000 0000 000000
2017-09-04 02:37:53,-0.02,0.08,0.00,26.04,29.45,31.72,13.66,44.08,1014.83,2024.29,3507.00,3052.01,3500.14,599.83,588.79,8.15,0000 0000 0000 0000 000000
2017-09-04 02:42:54,0.00,0.08,0.00,26.07,29.47,31.74,13.73,44.01,1014.77,2024.15,3506.75,3051.99,3499.99,600.20,589.17,8.20,0000 0000 0000 0000 000000
2017-09-04 02:47:55,0.02,0.08,0.00,26.07,29.47,31.75,13.73,44.09,1014.71,2024.10,3506.08,3051.67,3499.71,600.27,588.92,8.25,0000 0000 0000 0000 000000
2017-09-04 02:52:57,0.01,0.08,0.00,26.10,29.50,31.76,13.69,44.06,1014.70,2024.01,3506.00,3051.12,3499.05,599.94,588.70,8.30,0000 0000 0000 0000 000000
2017-09-04 02:57:58,0.01,0.08,0.00,26.12,29.51,31.78,13.75,44.13,1014.72,2024.00,3505.65,3051.01,3498.98,599.97,588.65,8.35,0000 0000 0000 0000 000000
2017-09-04 03:02:59,0.01,0.09,0.00,26.14,29.52,31.79,13.65,44.11,1014.73,2024.00,3505.06,3050.99,3498.66,599.95,588.65,8.40,0000 0000 0000 0000 000000
2017-09-04 03:08:00,0.02,0.09,0.00,26.16,29.54,31.80,13.71,44.16,1014.73,2024.00,3505.00,3050.71,3498.07,600.22,588.91,8.45,0000 0000 0000 0000 000000
2017-09-04 03:13:02,0.01,0.09,0.00,26.18,29.55,31.81,13.67,44.11,1014.72,2024.00,3504.85,3050.14,3498.00,599.92,588.52,8.50,0000 0000 0000 0000 000000
2017-09-04 03:18:03,0.02,0.09,0.00,26.21,29.57,31.84,13.66,44.08,1014.77,2024.00,3504.09,3050.00,3497.39,600.09,588.68,8.55,0000 0000 0000 0000 000000
2017-09-04 03:23:04,0.00,0.09,0.00,26.24,29.59,31.86,13.66,44.24,1014.71,2024.00,3503.97,3049.95,3497.00,599.86,588.37,8.60,0000 0000 0000 0000 000000
2017-09-04 03:28:05,0.03,0.09,0.00,26.25,29.60,31.87,13.73,44.18,1014.68,2023.99,3503.38,3049.45,3496.93,600.10,588.54,8.65,0000 0000 0000 0000 000000
2017-09-04 03:33:07,0.02,0.09,0.00,26.28,29.62,31.89,13.65,43.98,1014.69,2023.98,3503.01,3049.04,3496.19,599.96,588.31,8.71,0000 0000 0000 0000 000000
2017-09-04 03:38:08,0.01,0.09,0.00,26.30,29.64,31.91,13.69,44.16,1014.69,2023.97,3502.76,3049.00,3495.99,599.60,588.05,8.76,0000 0000 0000 0000 000000
2017-09-04 03:43:10,0.02,0.09,0.00,26.32,29.66,31.92,13.61,44.07,1014.68,2023.86,3502.11,3048.72,3495.56,599.57,587.98,8.81,0000 0000 0000 0000 000000
2017-09-04 03:48:11,-0.01,0.09,0.00,26.36,29.68,31.94,13.59,44.12,1014.66,2023.53,3501.88,3048.07,3495.01,599.79,588.00,8.86,0000 0000 0000 0000 000000
2017-09-04 03:53:12,-0.01,0.09,0.00,26.37,29.70,31.97,13.64,44.08,1014.67,2023.11,3501.10,3047.99,3494.63,599.60,587.83,8.91,0000 0000 0000 0000 000000
2017-09-04 03:58:14,0.04,0.09,0.00,26.40,29.72,31.98,13.73,44.24,1014.66,2023.21,3500.59,3047.73,3494.04,600.18,588.26,8.96,0000 0000 0000 0000 000000
2017-09-04 04:03:15,0.01,0.09,0.00,26.45,29.74,32.00,13.67,44.18,1014.66,2023.09,3500.03,3047.07,3493.85,599.96,588.13,9.01,0000 0000 0000 0000 000000
2017-09-04 04:08:17,0.01,0.09,0.00,26.47,29.76,32.01,13.61,44.11,1014.66,2023.02,3499.87,3046.99,3493.11,599.73,587.75,9.06,0000 0000 0000 0000 000000
2017-09-04 04:13:18,0.03,0.10,0.00,26.47,29.77,32.03,13.59,44.08,1014.66,2023.00,3499.10,3046.40,3492.92,599.74,587.77,9.11,0000 0000 0000 0000 000000
2017-09-04 04:18:19,0.03,0.10,0.00,26.50,29.79,32.05,13.65,44.02,1014.66,2023.00,3498.43,3046.00,3492.15,599.56,587.52,9.16,0000 0000 0000 0000 000000
2017-09-04 04:23:21,0.00,0.10,0.00,26.50,29.81,32.08,13.64,43.94,1014.66,2022.99,3497.98,3045.85,3491.96,599.93,588.00,9.21,0000 0000 0000 0000 000000
2017-09-04 04:28:22,0.04,0.10,0.00,26.52,29.82,32.09,13.67,43.98,1014.66,2022.99,3497.29,3045.14,3491.23,600.02,587.93,9.26,0000 0000 0000 0000 000000
2017-09-04 04:33:23,0.00,0.10,0.00,26.54,29.84,32.11,13.64,43.93,1014.66,2022.98,3497.00,3045.00,3491.00,599.92,587.81,9.31,0000 0000 0000 0000 000000
2017-09-04 04:38:24,0.02,0.10,0.00,26.49,29.86,32.13,13.55,43.94,1014.66,2022.96,3496.56,3044.95,3490.63,599.73,587.79,9.36,0000 0000 0000 0000 000000
2017-09-04 04:43:26,0.01,0.10,0.00,26.44,29.87,32.16,13.70,43.89,1014.66,2022.80,3496.02,3044.41,3490.03,600.41,588.47,9.41,0000 0000 0000 0000 000000
2017-09-04 04:48:27,0.00,0.10,0.00,26.40,29.87,32.18,13.70,43.89,1014.66,2022.66,3495.92,3044.02,3489.99,599.98,588.11,9.46,0000 0000 0000 0000 000000
2017-09-04 04:53:28,0.01,0.10,0.00,26.30,29.88,32.19,13.72,43.90,1014.66,2022.55,3495.23,3044.00,3489.66,600.10,588.51,9.51,0000 0000 0000 0000 000000
2017-09-04 04:58:29,0.00,0.10,0.00,26.24,29.89,32.19,13.76,43.92,1014.66,2022.43,3495.00,3043.99,3489.08,600.33,588.68,9.56,0000 0000 0000 0000 000000
2017-09-04 05:03:30,-0.01,0.10,0.00,26.13,29.87,32.24,13.64,43.92,1014.66,2022.30,3494.91,3043.94,3489.00,599.65,588.40,9.61,0000 0000 0000 0000 000000
2017-09-04 05:08:32,0.04,0.10,0.00,26.04,29.87,32.29,13.70,43.96,1014.63,2022.57,3494.33,3043.78,3489.00,600.03,588.79,9.66,0000 0000 0000 0000 000000
2017-09-04 05:13:33,0.03,0.11,0.00,25.99,29.86,32.36,13.74,44.05,1014.60,2022.73,3494.04,3043.43,3488.99,600.12,588.95,9.71,0000 0000 0000 0000 000000
2017-09-04 05:18:34,0.00,0.11,0.00,25.92,29.84,32.35,13.71,44.13,1014.56,2022.67,3494.00,3043.14,3488.92,599.57,588.62,9.76,0000 0000 0000 0000 000000
2017-09-04 05:23:35,0.02,0.11,0.00,25.84,29.82,32.39,13.71,44.13,1014.47,2022.92,3494.00,3043.13,3488.87,599.93,589.04,9.81,0000 0000 0000 0000 000000
2017-09-04 05:28:37,0.00,0.11,0.00,25.77,29.80,32.40,13.73,44.17,1014.37,2022.97,3493.99,3043.16,3488.69,599.85,589.06,9.86,0000 0000 0000 0000 000000
2017-09-04 05:33:38,0.00,0.11,0.00,25.75,29.77,32.41,13.74,44.09,1014.28,2022.98,3493.98,3043.19,3488.60,599.84,589.06,9.91,0000 0000 0000 0000 000000
2017-09-04 05:38:39,0.00,0.11,0.00,25.78,29.75,32.32,13.76,44.23,1014.23,2022.99,3493.96,3043.19,3488.43,600.24,589.41,9.96,0000 0000 0000 0000 000000
2017-09-04 05:43:41,0.00,0.11,0.00,25.84,29.72,32.18,13.71,44.10,1014.21,2022.99,3493.88,3043.20,3488.24,600.03,589.05,10.01,0000 0000 0000 0000 000000
2017-09-04 05:48:42,0.00,0.11,0.00,25.91,29.70,32.05,13.66,44.02,1014.20,2023.01,3493.72,3043.38,3488.28,599.58,588.50,10.06,0000 0000 0000 0000 000000
2017-09-04 05:53:44,0.01,0.11,0.00,25.98,29.68,31.93,13.75,44.12,1014.19,2023.01,3493.23,3043.22,3488.10,600.17,588.86,10.11,0000 0000 0000 0000 000000
2017-09-04 05:58:45,0.00,0.11,0.00,26.04,29.67,31.86,13.74,44.12,1014.18,2023.04,3493.07,3043.07,3488.02,600.43,588.82,10.16,0000 0000 0000 0000 000000
2017-09-04 06:03:46,0.00,0.11,0.00,26.10,29.65,31.86,13.73,44.16,1014.18,2023.05,3493.00,3043.02,3488.00,600.19,588.72,10.21,0000 0000 0000 0000 000000
2017-09-04 06:08:47,0.01,0.11,0.00,26.15,29.65,31.84,13.69,44.12,1014.18,2023.12,3492.96,3043.00,3488.00,599.94,588.15,10.26,0000 0000 0000 0000 000000
2017-09-04 06:13:49,0.03,0.11,0.00,26.20,29.65,31.84,13.56,44.13,1014.18,2023.34,3492.93,3043.00,3487.98,599.92,588.13,10.31,0000 0000 0000 0000 000000
2017-09-04 06:18:50,0.01,0.11,0.00,26.27,29.65,31.86,13.65,44.17,1014.18,2023.40,3492.30,3042.99,3487.61,599.67,587.78,10.36,0000 0000 0000 0000 000000
2017-09-04 06:23:51,0.02,0.11,0.00,26.31,29.65,31.87,13.60,44.05,1014.18,2023.51,3492.01,3042.95,3487.09,599.92,587.85,10.41,0000 0000 0000 0000 000000
2017-09-04 06:28:52,0.01,0.11,0.00,26.35,29.65,31.88,13.69,44.16,1014.17,2023.52,3491.99,3042.55,3487.00,600.37,588.34,10.46,0000 0000 0000 0000 000000
2017-09-04 06:33:54,0.02,0.11,0.00,26.38,29.67,31.89,13.63,44.11,1014.17,2023.39,3491.40,3042.08,3486.88,599.61,587.47,10.51,0000 0000 0000 0000 000000
2017-09-04 06:38:55,0.00,0.12,0.00,26.41,29.67,31.92,13.70,44.19,1014.17,2023.43,3491.05,3042.01,3486.44,600.08,587.92,10.56,0000 0000 0000 0000 000000
2017-09-04 06:43:56,-0.01,0.11,0.00,26.44,29.69,31.94,13.64,44.08,1014.17,2023.22,3490.98,3042.00,3486.02,600.26,588.01,10.61,0000 0000 0000 0000 000000
2017-09-04 06:48:57,0.01,0.11,0.00,26.47,29.70,31.96,13.64,44.02,1014.17,2023.08,3490.45,3041.84,3485.97,600.06,587.71,10.66,0000 0000 0000 0000 000000
2017-09-04 06:53:58,0.03,0.12,0.00,26.51,29.72,31.97,13.64,44.09,1014.17,2023.04,3490.02,3041.18,3485.33,600.28,587.92,10.71,0000 0000 0000 0000 000000
2017-09-04 06:59:00,-0.00,0.12,0.00,26.54,29.75,32.00,13.60,44.03,1014.16,2023.01,3489.94,3041.00,3485.01,599.99,587.64,10.76,0000 0000 0000 0000 000000
2017-09-04 07:04:01,0.01,0.12,0.00,26.56,29.76,32.03,13.66,44.06,1014.14,2023.00,3489.37,3040.97,3484.80,600.28,587.80,10.81,0000 0000 0000 0000 000000
2017-09-04 07:09:02,0.02,0.12,0.00,26.59,29.77,32.06,13.67,44.06,1014.14,2023.00,3489.00,3040.57,3484.07,600.03,587.49,10.86,0000 0000 0000 0000 000000
2017-09-04 07:14:04,0.00,0.12,0.00,26.63,29.80,32.07,13.70,44.04,1014.13,2023.00,3488.90,3040.06,3483.98,600.57,587.95,10.91,0000 0000 0000 0000 000000
2017-09-04 07:19:05,0.02,0.12,0.00,26.65,29.82,32.10,13.60,44.11,1014.16,2022.95,3488.28,3040.00,3483.43,599.84,587.11,10.97,0000 0000 0000 0000 000000
2017-09-04 07:24:06,-0.02,0.12,0.00,26.67,29.85,32.12,13.65,44.11,1014.14,2022.72,3488.00,3039.92,3483.00,600.03,587.27,11.02,0000 0000 0000 0000 000000
2017-09-04 07:29:07,0.01,0.12,0.00,26.71,29.86,32.15,13.69,44.02,1014.09,2022.41,3487.41,3039.29,3482.63,600.34,587.53,11.07,0000 0000 0000 0000 000000
2017-09-04 07:34:09,-0.00,0.12,0.00,26.71,29.89,32.17,13.57,44.08,1014.08,2022.29,3487.01,3039.02,3482.03,599.48,586.78,11.12,0000 0000 0000 0000 000000
2017-09-04 07:39:10,0.01,0.12,0.00,26.73,29.91,32.20,13.63,44.08,1013.97,2022.03,3486.48,3038.81,3481.79,599.99,587.12,11.17,0000 0000 0000 0000 000000
2017-09-04 07:44:11,0.02,0.12,0.00,26.76,29.93,32.22,13.70,44.06,1013.78,2022.00,3486.00,3038.08,3481.05,600.12,587.11,11.22,0000 0000 0000 0000 000000
2017-09-04 07:49:12,0.00,0.12,0.00,26.78,29.96,32.26,13.64,44.06,1013.75,2022.00,3485.82,3038.00,3480.96,599.99,586.85,11.27,0000 0000 0000 0000 000000
2017-09-04 07:54:14,0.02,0.12,0.00,26.83,29.98,32.27,13.67,43.95,1013.72,2022.00,3485.12,3037.96,3480.45,600.28,587.04,11.32,0000 0000 0000 0000 000000
2017-09-04 07:59:15,0.02,0.12,0.00,26.87,30.01,32.29,13.59,44.07,1013.72,2021.99,3484.92,3037.35,3480.01,599.93,586.64,11.37,0000 0000 0000 0000 000000
2017-09-04 08:04:16,0.02,0.13,0.00,26.92,30.03,32.31,13.60,44.01,1013.71,2021.97,3484.19,3037.01,3479.56,600.09,586.68,11.42,0000 0000 0000 0000 000000
2017-09-04 08:09:18,0.00,0.13,0.00,26.96,30.06,32.33,13.63,44.02,1013.70,2021.92,3484.00,3036.92,3479.02,600.18,586.73,11.47,0000 0000 0000 0000 000000
2017-09-04 08:14:19,0.02,0.13,0.00,27.01,30.08,32.36,13.61,43.94,1013.71,2021.71,3483.53,3036.20,3478.71,599.89,586.13,11.52,0000 0000 0000 0000 000000
2017-09-04 08:19:20,-0.02,0.13,0.00,27.04,30.11,32.39,13.52,44.00,1013.71,2021.39,3482.99,3036.00,3478.03,599.82,586.20,11.57,0000 0000 0000 0000 000000
2017-09-04 08:24:21,0.02,0.13,0.00,27.08,30.14,32.42,13.58,43.97,1013.71,2021.17,3482.48,3035.78,3477.75,599.54,585.76,11.62,0000 0000 0000 0000 000000
2017-09-04 08:29:23,0.01,0.13,0.00,27.11,30.16,32.45,13.67,43.98,1013.70,2021.02,3482.01,3035.07,3477.04,600.21,586.48,11.67,0000 0000 0000 0000 000000
2017-09-04 08:34:24,0.01,0.13,0.00,27.13,30.19,32.48,13.65,43.86,1013.70,2021.00,3481.71,3034.99,3476.92,600.05,586.28,11.72,0000 0000 0000 0000 000000
2017-09-04 08:39:25,0.02,0.13,0.00,27.13,30.22,32.52,13.54,43.94,1013.69,2021.00,3481.04,3034.83,3476.14,599.77,585.75,11.77,0000 0000 0000 0000 000000
2017-09-04 08:44:26,0.02,0.13,0.00,27.16,30.25,32.55,13.62,43.98,1013.69,2021.00,3480.94,3034.14,3475.99,600.23,586.35,11.82,0000 0000 0000 0000 000000
2017-09-04 08:49:28,0.02,0.13,0.00,27.19,30.27,32.58,13.57,43.96,1013.69,2020.98,3480.19,3034.00,3475.38,599.85,585.84,11.87,0000 0000 0000 0000 000000
2017-09-04 08:54:29,0.01,0.13,0.00,27.20,30.30,32.62,13.61,43.84,1013.69,2020.98,3479.99,3033.83,3475.01,600.10,586.17,11.92,0000 0000 0000 0000 000000
2017-09-04 08:59:30,0.02,0.13,0.00,27.22,30.33,32.63,13.52,43.87,1013.69,2020.90,3479.54,3033.15,3474.84,599.80,585.82,11.97,0000 0000 0000 0000 000000
2017-09-04 09:04:32,-0.03,0.13,0.00,27.24,30.35,32.66,13.60,43.92,1013.69,2020.59,3479.05,3033.01,3474.11,600.00,585.89,12.02,0000 0000 0000 0000 000000
2017-09-04 09:09:32,-0.03,0.13,0.00,27.23,30.38,32.69,13.64,44.06,1013.69,2020.05,3478.97,3032.96,3473.96,600.11,586.09,12.07,0000 0000 0000 0000 000000
2017-09-04 09:14:33,0.04,0.13,0.00,27.24,30.40,32.70,13.56,43.95,1013.69,2020.01,3478.40,3032.41,3473.32,599.39,585.39,12.12,0000 0000 0000 0000 000000
2017-09-04 09:19:35,0.00,0.13,0.00,27.26,30.42,32.73,13.59,44.02,1013.69,2020.00,3478.00,3032.01,3473.00,599.75,585.54,12.17,0000 0000 0000 0000 000000
2017-09-04 09:24:36,0.00,0.13,0.00,27.29,30.45,32.74,13.59,43.95,1013.68,2019.99,3477.96,3032.00,3472.79,599.73,585.67,12.22,0000 0000 0000 0000 000000
2017-09-04 09:29:38,0.02,0.13,0.00,27.30,30.47,32.77,13.64,43.91,1013.64,2019.97,3477.45,3031.93,3472.11,600.25,586.04,12.27,0000 0000 0000 0000 000000
2017-09-04 09:34:39,0.02,0.14,0.00,27.31,30.49,32.78,13.54,43.85,1013.57,2019.96,3477.01,3031.32,3472.00,599.66,585.46,12.32,0000 0000 0000 0000 000000
2017-09-04 09:39:40,0.01,0.14,0.00,27.34,30.51,32.81,13.60,43.96,1013.55,2019.87,3476.88,3031.03,3471.79,600.26,586.04,12.37,0000 0000 0000 0000 000000
2017-09-04 09:44:41,-0.02,0.13,0.00,27.34,30.53,32.83,13.56,43.84,1013.56,2019.45,3476.12,3030.97,3471.07,600.16,585.82,12.42,0000 0000 0000 0000 000000
2017-09-04 09:49:43,-0.02,0.13,0.00,27.36,30.55,32.84,13.52,43.83,1013.64,2019.09,3476.00,3030.86,3471.00,599.71,585.40,12.47,0000 0000 0000 0000 000000
2017-09-04 09:54:44,0.02,0.13,0.00,27.38,30.57,32.86,13.60,43.87,1013.68,2019.04,3475.86,3030.24,3470.70,599.81,585.51,12.52,0000 0000 0000 0000 000000
2017-09-04 09:59:45,0.01,0.14,0.00,27.40,30.59,32.88,13.59,43.71,1013.69,2019.00,3475.09,3030.01,3470.03,599.79,585.32,12.57,0000 0000 0000 0000 000000
2017-09-04 10:04:46,0.00,0.14,0.00,27.41,30.61,32.89,13.63,43.83,1013.69,2019.00,3474.97,3029.94,3469.95,600.12,585.78,12.62,0000 0000 0000 0000 000000
2017-09-04 10:09:48,0.03,0.14,0.00,27.40,30.63,32.92,13.55,43.73,1013.69,2019.00,3474.65,3029.39,3469.31,599.64,585.29,12.67,0000 0000 0000 0000 000000
2017-09-04 10:14:49,0.01,0.14,0.00,27.41,30.65,32.93,13.61,43.77,1013.69,2018.98,3474.06,3029.03,3469.01,600.17,585.73,12.72,0000 0000 0000 0000 000000
2017-09-04 10:19:50,0.00,0.14,0.00,27.39,30.67,32.95,13.60,43.76,1013.69,2018.94,3474.00,3029.00,3468.95,599.83,585.43,12.77,0000 0000 0000 0000 000000
2017-09-04 10:24:51,0.00,0.14,0.00,27.40,30.69,32.98,13.62,43.88,1013.69,2018.80,3473.64,3028.95,3468.29,599.45,585.09,12.82,0000 0000 0000 0000 000000
2017-09-04 10:29:52,-0.01,0.14,0.00,27.40,30.70,32.99,13.59,43.81,1013.68,2018.37,3473.03,3028.31,3468.00,599.89,585.55,12.87,0000 0000 0000 0000 000000
2017-09-04 10:34:53,-0.00,0.14,0.00,27.41,30.72,33.02,13.61,43.72,1013.69,2018.10,3472.98,3028.01,3467.82,599.85,585.46,12.92,0000 0000 0000 0000 000000
2017-09-04 10:39:54,0.02,0.14,0.00,27.40,30.74,33.03,13.65,43.87,1013.69,2018.03,3472.37,3027.99,3467.09,599.99,585.46,12.97,0000 0000 0000 0000 000000
2017-09-04 10:44:56,0.00,0.14,0.00,27.39,30.75,33.04,13.58,43.92,1013.69,2018.02,3472.01,3027.96,3467.00,599.77,585.42,13.02,0000 0000 0000 0000 000000
2017-09-04 10:49:57,0.02,0.14,0.00,27.37,30.76,33.06,13.58,43.77,1013.69,2018.00,3471.97,3027.55,3466.85,599.76,585.45,13.07,0000 0000 0000 0000 000000
2017-09-04 10:54:59,0.03,0.14,0.00,27.36,30.77,33.08,13.55,43.71,1013.69,2018.00,3471.27,3027.02,3466.12,599.61,585.37,13.12,0000 0000 0000 0000 000000
2017-09-04 11:00:00,0.00,0.14,0.00,27.33,30.77,33.09,13.60,43.83,1013.69,2018.00,3471.00,3027.00,3466.00,600.08,585.73,13.17,0000 0000 0000 0000 000000
2017-09-04 11:05:01,0.01,0.14,0.00,27.31,30.79,33.09,13.57,43.82,1013.69,2018.00,3470.89,3026.96,3465.88,599.83,585.65,13.22,0000 0000 0000 0000 000000
2017-09-04 11:10:02,0.04,0.14,0.00,27.30,30.80,33.09,13.61,43.81,1013.69,2017.99,3470.19,3026.49,3465.16,600.08,585.96,13.28,0000 0000 0000 0000 000000
2017-09-04 11:15:04,0.00,0.14,0.00,27.29,30.80,33.09,13.67,43.80,1013.69,2017.97,3470.00,3026.05,3465.00,600.20,586.03,13.33,0000 0000 0000 0000 000000
2017-09-04 11:20:05,0.00,0.14,0.00,27.26,30.80,33.09,13.59,43.88,1013.69,2017.97,3469.95,3026.00,3464.97,599.74,585.74,13.38,0000 0000 0000 0000 000000
2017-09-04 11:25:06,0.01,0.14,0.00,27.27,30.80,33.10,13.61,43.81,1013.69,2017.98,3469.29,3025.99,3464.72,599.86,585.74,13.43,0000 0000 0000 0000 000000
2017-09-04 11:30:08,0.01,0.15,0.00,27.26,30.80,33.10,13.52,43.82,1013.69,2017.99,3469.03,3025.98,3464.28,599.47,585.34,13.48,0000 0000 0000 0000 000000
2017-09-04 11:35:09,0.00,0.15,0.00,27.24,30.80,33.10,13.63,43.82,1013.68,2017.99,3468.96,3025.91,3464.01,600.06,586.01,13.53,0000 0000 0000 0000 000000
2017-09-04 11:40:10,0.02,0.15,0.00,27.23,30.80,33.09,13.62,43.82,1013.58,2017.99,3468.33,3025.48,3464.00,599.65,585.55,13.58,0000 0000 0000 0000 000000
2017-09-04 11:45:12,0.00,0.15,0.00,27.22,30.81,33.09,13.57,43.88,1013.48,2017.99,3468.04,3025.17,3463.97,599.91,585.75,13.63,0000 0000 0000 0000 000000
2017-09-04 11:50:13,0.00,0.15,0.00,27.20,30.81,33.09,13.59,43.77,1013.25,2017.99,3468.00,3025.03,3463.83,600.08,585.75,13.68,0000 0000 0000 0000 000000
2017-09-04 11:55:14,0.00,0.15,0.00,27.20,30.80,33.09,13.61,43.77,1013.22,2017.99,3468.00,3025.01,3463.55,600.01,585.71,13.73,0000 0000 0000 0000 000000
2017-09-04 12:00:15,0.00,0.15,0.00,27.19,30.80,33.09,13.63,43.93,1013.21,2017.99,3467.99,3025.00,3463.14,600.14,585.88,13.78,0000 0000 0000 0000 000000
2017-09-04 12:05:16,0.00,0.15,0.00,27.17,30.80,33.07,13.64,43.88,1013.21,2017.99,3467.82,3025.00,3463.01,600.39,586.19,13.83,0000 0000 0000 0000 000000
2017-09-04 12:10:17,0.01,0.15,0.00,27.17,30.80,33.08,13.65,43.83,1013.21,2017.98,3467.11,3024.97,3462.99,600.42,586.22,13.88,0000 0000 0000 0000 000000
2017-09-04 12:15:18,0.00,0.15,0.00,27.15,30.80,33.07,13.61,43.83,1013.20,2017.99,3467.00,3024.93,3462.94,600.17,585.84,13.93,0000 0000 0000 0000 000000
2017-09-04 12:20:20,0.00,0.15,0.00,27.12,30.80,33.07,13.65,43.90,1013.20,2017.99,3466.99,3024.90,3462.86,600.36,586.17,13.98,0000 0000 0000 0000 000000
2017-09-04 12:25:21,0.01,0.15,0.00,27.12,30.80,33.06,13.57,43.84,1013.20,2017.99,3466.94,3024.67,3462.49,600.00,585.90,14.03,0000 0000 0000 0000 000000
2017-09-04 12:30:22,0.01,0.15,0.00,27.11,30.79,33.07,13.70,44.00,1013.20,2017.99,3466.66,3024.30,3462.08,600.09,585.96,14.08,0000 0000 0000 0000 000000
2017-09-04 12:35:23,0.01,0.15,0.00,27.10,30.78,33.06,13.62,43.93,1013.18,2017.99,3466.21,3024.19,3462.04,599.89,585.82,14.13,0000 0000 0000 0000 000000
2017-09-04 12:40:24,0.00,0.15,0.00,27.08,30.77,33.05,13.66,44.00,1013.16,2017.99,3466.08,3024.17,3462.02,600.07,585.94,14.18,0000 0000 0000 0000 000000
2017-09-04 12:45:26,0.00,0.15,0.00,27.08,30.77,33.05,13.62,43.85,1013.07,2018.00,3466.00,3024.06,3462.00,600.18,586.08,14.23,0000 0000 0000 0000 000000
2017-09-04 12:50:27,0.00,0.15,0.00,27.09,30.77,33.03,13.62,43.87,1013.01,2018.01,3466.00,3024.03,3462.00,600.27,586.12,14.28,0000 0000 0000 0000 000000
2017-09-04 12:55:28,0.00,0.15,0.00,27.07,30.76,33.03,13.64,43.98,1012.77,2018.02,3465.99,3024.00,3461.99,600.17,585.91,14.33,0000 0000 0000 0000 000000